Regional Weather Roundup
Issued by NWS Memphis, TN

Home | Current Version | Previous Version | Text Only | Print | Product List | Glossary On
Versions: 1 2 3 4 5 6 7 8 9 10 11 12 13 14 15 16 17 18 19 20 21 22 23 24 25 26 27 28 29 30 31 32 33 34 35 36 37 38 39 40 41 42 43 44 45 46 47 48 49 50
000
ASUS44 KMEG 201110
RWRMEG
MEMPHIS CWA HOURLY WEATHER ROUNDUP
NATIONAL WEATHER SERVICE MEMPHIS TN
600 AM CDT WED MAR 20 2019

...WEST TENNESSEE...

CITY           SKY/WX    TMP DP  RH WIND       PRES   REMARKS
MEMPHIS INTL   FAIR      42  25  50 S7        30.22F
NWS MEMPHIS      N/A     37 N/A N/A MISG        N/A
JACKSON        FAIR      30  28  92 CALM      30.25S
COVINGTON      CLOUDY    34  34 100 SE5       30.23S WCI  30
SOMERVILLE     MOCLDY    37  28  70 S3        30.22S
BOLIVAR        CLOUDY    32  30  93 CALM      30.24R
LEXINGTON      CLEAR     30  28  93 CALM      30.25R
DYERSBURG      FAIR      42  31  64 S3        30.23F
UNION CITY     CLEAR     37  28  70 S6        30.22S WCI  33
PARIS          PTCLDY    39  25  56 SE8       30.23S WCI  34
HUNTINGDON     MOCLDY    36  28  75 CALM      30.23S


...EASTERN ARKANSAS...

CITY           SKY/WX    TMP DP  RH WIND       PRES   REMARKS
JONESBORO      FAIR      41  33  73 CALM      30.21F
WEST MEMPHIS   FAIR      44  32  62 S3        30.22F
BATESVILLE     PTCLDY    47  30  51 CALM      30.21S
NEWPORT        FAIR      42  32  67 S7        30.21S
WALNUT RIDGE   FAIR      41  32  70 SW6       30.21S
BLYTHEVILLE    FAIR      44  31  60 S7        30.22F
SEARCY         FAIR      38  38 100 CALM      30.22F
STUTTGART      FAIR      42  37  82 SW7       30.23S
PINE BLUFF     FAIR      42  36  79 CALM      30.23S
MONTICELLO     FAIR      43  33  68 S3        30.23S


...NORTH MISSISSIPPI...

CITY           SKY/WX    TMP DP  RH WIND       PRES   REMARKS
TUPELO         FAIR      34  29  82 CALM      30.25S
OXFORD         FAIR      32  27  80 CALM      30.26R
BATESVILLE     MOCLDY    32  32 100 CALM      30.24S
OLIVE BRANCH     N/A     37  25  60 S3        30.23S
TUNICA           N/A     36  32  87 SE3       30.25S
CLARKSDALE     CLOUDY    37  37 100 CALM      30.24S
CORINTH        FAIR      32  30  93 CALM      30.26R
GREENWOOD      FAIR      37  30  75 NE6       30.24S WCI  32
COLUMBUS       FAIR      33  30  89 CALM      30.25S
STARKVILLE     FAIR      32  30  93 CALM      30.27R
GOLDEN TRIANGL FAIR      35  32  88 CALM      30.26S


...SOUTHEAST MISSOURI...

CITY           SKY/WX    TMP DP  RH WIND       PRES   REMARKS
KENNETT        MOCLDY    41  34  75 S6        30.20S
MALDEN         FAIR      41  34  75 SE6       30.21F
WEST PLAINS    CLOUDY    48  31  51 S7        30.16S
POPLAR BLUFF   FAIR      37  35  92 CALM      30.20S
CAPE GIRARDEAU FAIR      42  31  64 S8        30.19F


...NORTHWEST ALABAMA...

CITY           SKY/WX    TMP DP  RH WIND       PRES   REMARKS
MUSCLE SHOALS  FAIR      34  29  82 CALM      30.27R


...MIDDLE TENNESSEE...

CITY           SKY/WX    TMP DP  RH WIND       PRES   REMARKS
NASHVILLE      FAIR      32  26  78 S5        30.25S WCI  27
CLARKSVILLE    FAIR      34  28  79 S3        30.25R
DICKSON        SUNNY     41  18  38 S3        30.23R
COLUMBIA       CLEAR     30  30 100 CALM      30.24S
LAWRENCEBURG   MOSUNNY   30  27  86 CALM      30.24S
LEWISBURG      SUNNY     25  23  93 CALM      30.26R


...WESTERN KENTUCKY...

CITY           SKY/WX    TMP DP  RH WIND       PRES   REMARKS
PADUCAH        FAIR      43  24  47 S3        30.21S
FORT CAMPBELL  FAIR      37  32  82 CALM      30.24S


...CENTRAL ARKANSAS...

CITY           SKY/WX    TMP DP  RH WIND       PRES   REMARKS
LITTLE ROCK    PTCLDY    42  36  79 SW3       30.22F


SKY/WX REPORTED AS FAIR MEANS FEW OR NO CLOUDS BELOW
12 THOUSAND FEET.




USA.gov is the U.S. government's official web portal to all federal, state and local government web resources and services.